Vertical_Velocity
3 -1 -2 -2 -4 -1 -2 1 -3 6 9 4 0 4 6 2 6 6 4 -0 2 3 3 3 -4 7 4 2 5 19 18 13 8 11 6 3 3 1 4 4 0 1 8 7
-3 2 1 -1 -5 -4 -1 -3 6 1 8 3 3 4 7 4 2 7 6 4 3 4 2 1 3 1 2 9 -1 8 10 8 0 -8 -4 4 13 6 -5 -1 8 2 -3 0
-3 -0 -6 0 -3 -4 4 13 0 -6 -1 5 4 -2 4 3 5 4 1 5 1 -4 0 4 7 1 1 4 8 8 3 2 2 8 9 1 1 4 3 1 -0 2 2 1
0 -1 -1 3 1 -0 1 4 11 -5 -4 -13 5 -3 -1 2 2 1 2 1 -2 12 -5 -1 -5 -3 -3 -3 -5 -2 -2 3 4 3 3 6 6 4 4 3 1 0 -3 -1
-0 -1 -1 1 -2 -1 -4 -1 -4 13 2 3 3 -5 4 1 1 -1 -1 2 11 1 3 1 2 4 3 -0 1 2 0 -2 1 5 3 1 -0 -2 -3 -2 -1 -1 -5 -2
1 -0 -1 -2 1 -0 2 -1 1 2 2 -0 -1 -1 -3 -11 -3 2 0 3 4 -5 3 -0 -4 -8 -7 -2 -2 -3 -5 -4 -9 -5 -4 -5 -4 -2 -1 -0 -2 -1 -5 -8
1 1 -1 0 -1 0 -0 3 -0 -3 -2 -5 0 2 -1 1 -4 3 7 3 1 1 4 -3 -2 -5 -4 -1 -3 2 0 -1 -2 -7 -10 -9 -6 -7 -8 -9 -9 -7 -4 -1
-1 1 1 -1 1 0 3 2 -2 -5 -3 -2 1 -1 4 1 1 4 4 -0 -3 -1 -17 -5 -5 -7 -5 -2 1 -1 -2 -5 -4 -2 -1 1 2 -0 -1 1 -1 1 4 3
-3 -1 -0 0 -0 -1 -1 -2 0 -4 0 -1 0 0 0 1 1 -1 -2 -4 -2 -1 -6 -5 -4 -2 -2 -4 -2 -1 -5 -5 -1 1 -1 -1 -2 -1 1 1 0 0 -2 -3
-1 -4 -1 1 1 2 1 -1 -2 -2 -4 -1 0 -2 -4 -9 -6 -3 -0 -0 -3 -7 -5 -2 -3 -2 -2 1 -3 -2 -1 4 0 -2 -3 -2 -2 -0 -1 -2 -4 -2 -0 0
2 1 -3 2 1 -0 1 1 -0 -2 -1 -6 -2 -6 -1 2 2 2 0 -1 -1 -0 -1 -1 -0 -0 3 0 5 3 -0 -0 -1 1 1 1 -1 -4 -5 -3 1 3 -0 0
2 -0 -2 -1 -1 -0 -1 -2 -1 -2 -3 -0 1 -4 -5 -2 2 3 0 -2 1 3 5 4 2 7 -4 4 2 -5 -1 -0 0 -1 -2 -1 1 1 2 1 -1 -1 -2 1
2 3 -3 -0 1 -0 -3 -4 -3 -2 -0 -2 -3 -5 -2 0 -3 -2 -2 -0 3 4 4 4 7 3 -1 -3 -5 2 2 -0 -0 1 2 -0 -4 -4 -6 -4 -3 0 1 0
3 -1 -2 -10 -3 -2 -2 -1 -3 -1 -1 -4 -11 0 -3 -2 -2 -2 2 3 3 3 5 3 4 5 0 -3 3 2 1 3 -1 -2 -4 -6 -6 -6 -4 -4 -5 -5 -2 -0
-0 -0 1 -0 -1 -1 -0 -0 -0 -1 1 -2 -3 -4 5 2 1 3 3 3 2 2 1 2 3 -0 -2 4 0 -3 -2 -4 -5 -4 -4 -6 -5 -4 -5 -3 -0 0 1 -0
-0 -1 0 -0 -1 -2 -4 -2 -2 -0 2 -2 -2 -4 0 -0 1 -1 2 2 2 1 7 0 3 -2 2 -2 -1 -2 -3 -4 -3 -2 -4 -2 -2 -5 -4 -3 -3 -2 -1 -2
2 1 1 -1 -0 1 -5 0 -2 -2 1 -1 -7 1 -2 -3 -1 1 3 2 2 2 -1 -1 -0 -0 -0 0 -0 -1 -2 -4 -3 -3 -5 -7 -5 -4 -5 -4 -1 -0 -1 -1
-1 1 2 -1 1 -6 -3 -3 -0 -4 -0 -0 -0 2 2 -0 1 -0 -0 1 3 1 -1 1 -1 2 0 -2 -2 -2 -3 -2 -3 -4 -5 -4 -2 -3 -5 -4 -0 1 -0 6
-0 -0 -2 -1 -0 -2 -4 -10 -3 2 -2 -2 -3 -1 0 -1 0 -2 6 2 1 -0 -2 -2 2 -1 -2 -0 -1 -2 -2 -3 -2 -0 -1 -2 -3 -4 -2 -2 -1 1 -0 -2
1 2 1 2 -0 -4 -6 -3 -1 0 -19 0 0 -1 -2 0 -3 8 -3 -1 0 -2 -1 2 -2 -3 -2 -2 -2 -1 0 0 -1 1 -1 1 -3 -3 -1 1 1 1 -1 1
-1 -0 -4 0 -2 -5 -5 0 1 3 -13 -5 -3 -2 -3 -7 -2 -4 0 1 -0 -0 3 1 -0 1 0 -2 -1 -1 -3 -2 -1 1 -1 -1 -1 -4 -2 0 -1 -1 -1 0
2 2 -3 3 1 -14 -0 -0 -12 5 -3 -4 0 -2 -5 -0 1 0 -1 0 -0 2 -0 -2 -1 -3 -5 -3 -4 -2 -1 0 0 -0 -3 -3 -2 -2 -2 -2 -0 -0 -0 0
-6 -3 -3 -4 -4 1 2 -1 1 1 -3 -5 -4 -1 0 -3 2 0 1 0 -0 2 -1 -2 -5 -3 1 -1 -3 -1 2 -1 -0 -1 -1 -0 -1 -2 0 -2 -2 -1 0 -0
-0 1 -4 13 -3 1 4 -3 -1 1 0 0 2 -2 -1 4 4 -1 -0 -1 5 -0 -1 -1 0 2 3 1 -1 -2 -3 -1 -1 0 1 -0 -1 1 -0 -1 0 1 1 0
0 2 1 -4 -7 1 -3 -4 2 0 1 2 -0 -0 1 0 2 2 -1 5 -0 1 2 1 -0 0 0 1 1 0 -1 -0 1 1 -2 -1 -1 -0 -0 0 -0 0 0 1
1 4 3 -10 3 -1 -2 4 1 1 3 -1 1 1 2 4 6 3 6 2 0 0 -2 -1 -0 -1 0 1 0 0 -0 -3 -3 1 -1 -2 -4 2 -0 1 1 1 -1 -0
Height
3139 3141 3142 3143 3144 3146 3147 3147 3146 3147 3150 3153 3154 3155 3155 3157 3159 3160 3160 3160 3161 3162 3163 3165 3167 3169 3170 3169 3170 3167 3165 3162 3161 3160 3158 3156 3155 3153 3152 3150 3147 3144 3140 3136
3140 3140 3141 3143 3145 3146 3146 3145 3143 3144 3148 3150 3152 3153 3154 3158 3160 3159 3158 3159 3159 3160 3160 3163 3166 3168 3169 3167 3166 3165 3163 3160 3159 3157 3155 3153 3152 3150 3147 3144 3142 3138 3133 3129
3139 3141 3142 3144 3144 3146 3146 3145 3144 3145 3147 3150 3150 3155 3157 3158 3158 3158 3159 3159 3159 3161 3164 3165 3166 3166 3165 3165 3164 3161 3159 3157 3156 3154 3153 3151 3148 3145 3142 3139 3134 3130 3125 3120
3141 3142 3143 3143 3144 3145 3145 3145 3145 3146 3147 3150 3151 3159 3159 3158 3158 3160 3160 3161 3162 3164 3164 3163 3162 3161 3160 3160 3159 3158 3157 3156 3154 3152 3149 3146 3144 3141 3137 3133 3128 3123 3116 3111
3142 3142 3143 3143 3144 3145 3146 3146 3146 3147 3148 3149 3151 3153 3156 3158 3158 3159 3160 3162 3162 3165 3162 3161 3161 3160 3159 3158 3158 3156 3154 3152 3150 3148 3145 3142 3139 3134 3129 3123 3117 3111 3105 3100
3140 3141 3143 3143 3142 3143 3144 3146 3147 3147 3148 3150 3150 3151 3154 3151 3154 3156 3159 3160 3161 3162 3160 3160 3159 3158 3156 3155 3154 3152 3151 3149 3146 3142 3138 3134 3129 3123 3117 3111 3106 3100 3095 3090
3140 3140 3141 3142 3143 3143 3143 3144 3146 3149 3150 3149 3148 3149 3146 3149 3152 3157 3159 3158 3158 3159 3157 3157 3156 3155 3153 3151 3150 3149 3146 3143 3139 3135 3131 3127 3121 3115 3109 3102 3096 3090 3086 3081
3140 3142 3141 3142 3142 3142 3141 3142 3141 3147 3151 3146 3146 3145 3145 3148 3152 3155 3155 3155 3157 3156 3153 3153 3153 3151 3150 3148 3145 3143 3140 3135 3131 3127 3122 3116 3110 3104 3097 3091 3083 3078 3074 3069
3139 3140 3140 3141 3141 3142 3141 3141 3142 3142 3145 3145 3147 3146 3147 3148 3150 3150 3151 3151 3151 3150 3148 3147 3146 3145 3143 3142 3140 3139 3135 3130 3125 3120 3114 3108 3100 3094 3088 3082 3076 3070 3064 3058
3137 3139 3141 3141 3141 3142 3142 3143 3143 3142 3147 3151 3146 3145 3143 3144 3146 3148 3149 3148 3147 3146 3144 3143 3142 3140 3138 3138 3136 3133 3129 3125 3119 3112 3105 3098 3091 3084 3077 3071 3065 3058 3051 3045
3136 3138 3142 3141 3142 3142 3143 3141 3142 3143 3143 3144 3148 3141 3140 3141 3142 3144 3145 3144 3143 3143 3142 3139 3137 3137 3135 3132 3129 3126 3120 3114 3108 3102 3095 3089 3082 3075 3068 3061 3055 3048 3042 3036
3135 3136 3138 3140 3140 3141 3141 3141 3141 3142 3143 3142 3142 3140 3137 3139 3141 3141 3142 3142 3140 3139 3137 3135 3134 3132 3128 3127 3124 3119 3113 3106 3099 3093 3086 3078 3071 3066 3061 3055 3048 3041 3034 3028
3134 3135 3137 3140 3142 3140 3140 3140 3140 3140 3141 3140 3142 3138 3136 3137 3137 3138 3139 3138 3136 3135 3134 3132 3130 3127 3123 3120 3116 3111 3104 3098 3092 3085 3078 3071 3064 3059 3053 3046 3039 3032 3025 3019
3133 3133 3134 3135 3135 3137 3138 3138 3139 3139 3139 3137 3136 3135 3135 3134 3134 3134 3134 3133 3132 3131 3129 3127 3124 3121 3117 3112 3108 3101 3095 3090 3084 3077 3070 3062 3056 3048 3041 3034 3027 3021 3016 3010
3131 3132 3133 3133 3134 3135 3135 3136 3135 3135 3135 3134 3133 3132 3132 3131 3131 3131 3130 3129 3127 3126 3125 3122 3119 3114 3109 3105 3099 3093 3088 3082 3076 3069 3061 3054 3047 3039 3033 3027 3020 3013 3008 3003
3130 3130 3131 3132 3133 3133 3132 3132 3132 3131 3130 3129 3128 3127 3127 3127 3126 3126 3125 3124 3123 3121 3120 3115 3112 3108 3102 3096 3090 3086 3080 3074 3068 3061 3053 3046 3040 3033 3025 3018 3011 3005 3000 2995
3128 3129 3130 3130 3130 3130 3130 3127 3126 3126 3126 3125 3123 3124 3123 3123 3122 3121 3121 3120 3119 3116 3112 3108 3103 3098 3093 3088 3083 3077 3072 3066 3060 3052 3045 3038 3030 3022 3015 3010 3004 2998 2994 2990
3126 3127 3128 3127 3128 3130 3123 3122 3122 3122 3122 3121 3120 3120 3120 3119 3118 3118 3117 3115 3113 3109 3104 3099 3094 3091 3086 3080 3075 3069 3063 3057 3050 3043 3035 3028 3021 3016 3009 3002 2997 2992 2989 2987
3124 3124 3125 3125 3123 3121 3120 3119 3119 3118 3118 3117 3117 3116 3116 3115 3113 3112 3111 3108 3105 3100 3095 3092 3088 3083 3078 3073 3067 3061 3055 3048 3042 3035 3028 3021 3014 3007 3001 2995 2990 2986 2983 2980
3119 3120 3122 3121 3120 3118 3115 3115 3115 3114 3111 3113 3112 3112 3111 3109 3106 3107 3103 3100 3096 3092 3088 3085 3080 3076 3071 3065 3059 3054 3048 3042 3035 3028 3021 3013 3006 3000 2994 2989 2985 2981 2978 2975
3115 3115 3116 3117 3115 3111 3111 3110 3111 3113 3111 3108 3108 3108 3105 3103 3101 3097 3095 3092 3088 3085 3081 3077 3073 3069 3064 3059 3053 3048 3041 3033 3027 3020 3012 3005 2999 2994 2989 2984 2979 2976 2972 2969
3112 3112 3112 3111 3111 3106 3105 3103 3106 3107 3104 3104 3102 3100 3098 3096 3094 3091 3088 3085 3082 3078 3074 3071 3067 3063 3058 3052 3045 3039 3032 3025 3018 3012 3005 2998 2992 2987 2983 2978 2975 2971 2968 2964
3107 3107 3108 3108 3104 3101 3101 3101 3101 3099 3099 3097 3095 3093 3091 3089 3086 3084 3080 3077 3073 3070 3068 3065 3061 3056 3050 3043 3037 3030 3023 3016 3010 3003 2997 2990 2985 2981 2977 2973 2969 2966 2963 2959
3101 3102 3099 3099 3099 3098 3096 3094 3094 3092 3091 3089 3087 3085 3083 3081 3078 3075 3071 3068 3066 3064 3061 3058 3053 3048 3042 3036 3028 3021 3014 3008 3002 2995 2989 2983 2978 2975 2972 2968 2965 2962 2959 2955
3098 3096 3094 3091 3093 3091 3090 3089 3087 3085 3083 3081 3078 3076 3075 3073 3069 3065 3062 3062 3060 3057 3054 3050 3046 3040 3033 3026 3020 3012 3006 3001 2995 2987 2981 2976 2972 2969 2966 2963 2960 2957 2954 2950
3092 3091 3089 3085 3086 3082 3081 3080 3079 3076 3075 3072 3070 3068 3066 3063 3059 3057 3057 3055 3054 3050 3046 3042 3037 3031 3025 3019 3012 3005 2999 2993 2987 2981 2975 2970 2966 2964 2960 2958 2955 2952 2948 2944